カタログに戻る

FENGYUN 1C DEB

運用中PO
NORAD 31441·DEBRIS·🇨🇳 China

打ち上げ May 10, 1999 から Taiyuan Satellite Launch Center

Loading…

次のパス (今後24時間)

TLE

経年Source: Space-Track

元期: Sep 7, 2026, 00:01 UTC

1 31441U 99025BUD 26250.00119345  .00035386  00000-0  25736-2 0  9996
2 31441  99.2764 164.0715 0058085 202.5397 157.3270 15.02360438680810

AllMySatでFENGYUN 1C DEBをリアルタイム追跡

Download on the App Store